When you browse on this site, cookies collect data to enhance your experience and personalize the content and advertising you see.
Visit our Privacy Policy to learn more. By continuing to use the site, you agree to this use of cookies and data.
  • In Hungary
  • List of Countries
  • For 7 days
  • Water Temperature
  • Weather Map
  • News
  • Weather Widgets
  • user-avatar
    Login

    Hourly Weather Kerewan

    Today, 31 May, Sunday

    Time Temperature Precipitation Wind Pressure Humidity
    00:00 +25°C° 0 mm 2 mps 757 mmHg 70%
    01:00 +25°C° 0 mm 1 mps 757 mmHg 71%
    02:00 +25°C° 0 mm 1 mps 757 mmHg 72%
    03:00 +24°C° 0 mm 1 mps 757 mmHg 73%
    04:00 +24°C° 0 mm 1 mps 757 mmHg 73%
    05:00 +24°C° 0 mm 2 mps 757 mmHg 74%
    06:00 +26°C° 0 mm 2 mps 757 mmHg 63%
    07:00 +28°C° 0 mm 2 mps 758 mmHg 52%
    08:00 +30°C° 0 mm 2 mps 758 mmHg 42%
    09:00 +34°C° 0 mm 2 mps 758 mmHg 33%
    10:00 +36°C° 0 mm 1 mps 758 mmHg 25%
    11:00 +40°C° 0 mm 1 mps 758 mmHg 16%
    12:00 +41°C° 0 mm 1 mps 757 mmHg 15%
    13:00 +42°C° 0 mm 1 mps 757 mmHg 14%
    14:00 +42°C° 0 mm 2 mps 756 mmHg 14%
    15:00 +40°C° 0 mm 3 mps 756 mmHg 21%
    16:00 +37°C° 0 mm 5 mps 756 mmHg 28%
    17:00 +34°C° 0 mm 7 mps 756 mmHg 35%
    18:00 +32°C° 0 mm 6 mps 756 mmHg 43%
    19:00 +29°C° 0 mm 6 mps 757 mmHg 50%
    20:00 +27°C° 0 mm 5 mps 758 mmHg 58%
    21:00 +27°C° 0 mm 4 mps 758 mmHg 60%
    22:00 +26°C° 0 mm 3 mps 759 mmHg 63%
    23:00 +26°C° 0 mm 3 mps 759 mmHg 65%

    Tomorrow, 1 June, Monday

    Time Temperature Precipitation Wind Pressure Humidity
    00:00 +26°C° 0 mm 2 mps 759 mmHg 67%
    01:00 +25°C° 0 mm 2 mps 759 mmHg 69%
    02:00 +25°C° 0 mm 1 mps 759 mmHg 70%
    03:00 +25°C° 0 mm 1 mps 759 mmHg 69%
    04:00 +23°C° 0 mm 0 mps 759 mmHg 67%
    05:00 +23°C° 0 mm 0 mps 759 mmHg 66%
    06:00 +24°C° 0 mm 0 mps 760 mmHg 63%
    07:00 +27°C° 0 mm 1 mps 760 mmHg 59%
    08:00 +28°C° 0 mm 1 mps 760 mmHg 56%
    09:00 +30°C° 0 mm 2 mps 760 mmHg 53%
    10:00 +33°C° 0 mm 3 mps 760 mmHg 49%
    11:00 +34°C° 0 mm 4 mps 760 mmHg 46%
    12:00 +35°C° 0 mm 3 mps 759 mmHg 45%
    13:00 +35°C° 0 mm 3 mps 759 mmHg 44%
    14:00 +35°C° 0 mm 2 mps 758 mmHg 43%
    15:00 +35°C° 0 mm 2 mps 758 mmHg 42%
    16:00 +35°C° 0 mm 2 mps 758 mmHg 42%
    17:00 +35°C° 0 mm 2 mps 757 mmHg 41%
    18:00 +33°C° 0 mm 3 mps 758 mmHg 48%
    19:00 +30°C° 0 mm 3 mps 758 mmHg 55%
    20:00 +28°C° 0 mm 4 mps 759 mmHg 62%
    21:00 +28°C° 0 mm 3 mps 759 mmHg 63%
    22:00 +27°C° 0 mm 2 mps 759 mmHg 64%
    23:00 +27°C° 0 mm 2 mps 759 mmHg 65%

    Day after tomorrow, 2 June, Tuesday

    Time Temperature Precipitation Wind Pressure Humidity
    00:00 +27°C° 0 mm 2 mps 759 mmHg 64%
    01:00 +27°C° 0 mm 2 mps 759 mmHg 63%
    02:00 +27°C° 0 mm 2 mps 758 mmHg 62%
    03:00 +26°C° 0 mm 2 mps 758 mmHg 61%
    04:00 +26°C° 0 mm 2 mps 759 mmHg 60%
    05:00 +26°C° 0 mm 2 mps 759 mmHg 60%
    06:00 +27°C° 0 mm 2 mps 759 mmHg 55%
    07:00 +28°C° 0 mm 2 mps 759 mmHg 51%
    08:00 +30°C° 0 mm 2 mps 760 mmHg 47%
    09:00 +32°C° 0 mm 2 mps 759 mmHg 42%
    10:00 +36°C° 0 mm 2 mps 759 mmHg 37%
    11:00 +38°C° 0 mm 2 mps 759 mmHg 32%
    12:00 +39°C° 0 mm 2 mps 758 mmHg 29%
    13:00 +41°C° 0 mm 2 mps 758 mmHg 26%
    14:00 +42°C° 0 mm 2 mps 757 mmHg 22%
    15:00 +42°C° 0 mm 3 mps 757 mmHg 26%
    16:00 +39°C° 0 mm 3 mps 756 mmHg 30%
    17:00 +38°C° 0 mm 3 mps 756 mmHg 33%
    18:00 +35°C° 0 mm 4 mps 756 mmHg 43%
    19:00 +32°C° 0 mm 5 mps 757 mmHg 52%
    20:00 +28°C° 0 mm 5 mps 758 mmHg 61%
    21:00 +28°C° 0 mm 5 mps 758 mmHg 59%
    22:00 +28°C° 0 mm 4 mps 758 mmHg 56%
    23:00 +28°C° 0 mm 4 mps 758 mmHg 53%

    3 June, Wednesday

    Time Temperature Precipitation Wind Pressure Humidity
    00:00 +27°C° 0 mm 3 mps 758 mmHg 55%
    01:00 +27°C° 0 mm 3 mps 758 mmHg 57%
    02:00 +26°C° 0 mm 2 mps 757 mmHg 58%
    03:00 +26°C° 0 mm 2 mps 757 mmHg 59%
    04:00 +25°C° 0 mm 2 mps 757 mmHg 60%
    05:00 +25°C° 0 mm 2 mps 757 mmHg 61%
    06:00 +27°C° 0 mm 3 mps 758 mmHg 54%
    07:00 +28°C° 0 mm 3 mps 758 mmHg 46%
    08:00 +30°C° 0 mm 3 mps 759 mmHg 38%
    09:00 +34°C° 0 mm 4 mps 758 mmHg 33%
    10:00 +37°C° 0 mm 4 mps 758 mmHg 27%
    11:00 +40°C° 0 mm 4 mps 758 mmHg 21%
    12:00 +41°C° 0 mm 4 mps 757 mmHg 20%
    13:00 +42°C° 0 mm 4 mps 757 mmHg 19%
    14:00 +43°C° 0 mm 4 mps 756 mmHg 17%
    15:00 +41°C° 0 mm 5 mps 756 mmHg 22%
    16:00 +40°C° 0 mm 6 mps 755 mmHg 28%
    17:00 +38°C° 0 mm 7 mps 755 mmHg 33%
    18:00 +35°C° 0 mm 7 mps 755 mmHg 38%
    19:00 +33°C° 0 mm 6 mps 756 mmHg 43%
    20:00 +30°C° 0 mm 6 mps 756 mmHg 47%
    21:00 +29°C° 0 mm 5 mps 757 mmHg 49%
    22:00 +29°C° 0 mm 5 mps 757 mmHg 50%
    23:00 +28°C° 0 mm 5 mps 757 mmHg 52%

    4 June, Thursday

    Time Temperature Precipitation Wind Pressure Humidity
    00:00 +27°C° 0 mm 4 mps 757 mmHg 54%
    01:00 +26°C° 0 mm 3 mps 757 mmHg 56%
    02:00 +26°C° 0 mm 2 mps 756 mmHg 59%
    03:00 +25°C° 0 mm 2 mps 756 mmHg 60%
    04:00 +25°C° 0 mm 2 mps 756 mmHg 62%
    05:00 +25°C° 0 mm 2 mps 757 mmHg 64%
    06:00 +26°C° 0 mm 2 mps 757 mmHg 59%
    07:00 +28°C° 0 mm 3 mps 758 mmHg 53%
    08:00 +29°C° 0 mm 4 mps 758 mmHg 47%
    09:00 +33°C° 0 mm 4 mps 758 mmHg 40%
    10:00 +36°C° 0 mm 4 mps 758 mmHg 32%
    11:00 +41°C° 0 mm 4 mps 757 mmHg 25%
    12:00 +42°C° 0 mm 4 mps 757 mmHg 23%
    13:00 +43°C° 0 mm 5 mps 756 mmHg 22%
    14:00 +45°C° 0 mm 5 mps 755 mmHg 21%
    15:00 +41°C° 0 mm 6 mps 755 mmHg 27%
    16:00 +38°C° 0 mm 7 mps 754 mmHg 34%
    17:00 +35°C° 0 mm 7 mps 754 mmHg 41%
    18:00 +34°C° 0 mm 7 mps 755 mmHg 42%
    19:00 +33°C° 0 mm 6 mps 755 mmHg 44%
    20:00 +30°C° 0 mm 6 mps 756 mmHg 46%
    21:00 +29°C° 0 mm 5 mps 756 mmHg 46%
    22:00 +29°C° 0 mm 5 mps 756 mmHg 47%
    23:00 +28°C° 0 mm 4 mps 757 mmHg 48%

    5 June, Friday

    Time Temperature Precipitation Wind Pressure Humidity
    00:00 +27°C° 0 mm 4 mps 756 mmHg 50%
    01:00 +26°C° 0 mm 3 mps 756 mmHg 52%
    02:00 +26°C° 0 mm 2 mps 756 mmHg 54%
    03:00 +25°C° 0 mm 2 mps 756 mmHg 55%
    04:00 +25°C° 0 mm 2 mps 756 mmHg 56%
    05:00 +25°C° 0 mm 2 mps 756 mmHg 57%
    06:00 +26°C° 0 mm 2 mps 757 mmHg 50%
    07:00 +28°C° 0 mm 3 mps 757 mmHg 43%
    08:00 +30°C° 0 mm 3 mps 757 mmHg 36%
    09:00 +34°C° 0 mm 4 mps 757 mmHg 29%
    10:00 +37°C° 0 mm 4 mps 757 mmHg 23%
    11:00 +41°C° 0 mm 4 mps 757 mmHg 17%
    12:00 +43°C° 0 mm 5 mps 756 mmHg 17%
    13:00 +45°C° 0 mm 5 mps 755 mmHg 17%
    14:00 +46°C° 0 mm 5 mps 755 mmHg 16%
    15:00 +43°C° 0 mm 5 mps 754 mmHg 22%
    16:00 +40°C° 0 mm 6 mps 754 mmHg 28%
    17:00 +38°C° 0 mm 6 mps 754 mmHg 33%
    18:00 +36°C° 0 mm 6 mps 754 mmHg 35%
    19:00 +34°C° 0 mm 6 mps 754 mmHg 37%
    20:00 +33°C° 0 mm 6 mps 755 mmHg 39%
    21:00 +32°C° 0 mm 5 mps 755 mmHg 42%
    22:00 +29°C° 0 mm 4 mps 756 mmHg 46%
    23:00 +28°C° 0 mm 3 mps 756 mmHg 49%
    Show more